Simultaneous Nadir Overpasses (SNOs) Predictions

Prediction of SNOs between NOAA-15 and METOP-C Satellite Orbit:

Table of predicted SNOs for the next 14.0 days since TLE Epoch: 7/14/2020
Index Date (NOAA-15) Time (NOAA-15) Lat,Lon (NOAA-15) SZA (NOAA-15 ) Date (METOP-C) Time (METOP-C) Lat,Lon (METOP-C) SZA (METOP-C ) Distance(km) Time Diff (sec)
1 07/28/2020 12:48:56 -80.94,-156.51 116.25 07/28/2020 12:47:43 -80.94,-156.53 116.28 0.39 73
2 07/28/2020 13:39:31 80.95, 10.66 63.75 07/28/2020 13:38:24 80.94, 10.77 63.73 2.45 67
3 07/28/2020 14:29:58 -80.93, 178.40 116.22 07/28/2020 14:29:04 -80.95, 178.34 116.24 1.96 54
4 07/28/2020 15:20:33 80.94, -14.44 63.78 07/28/2020 15:19:45 80.95, -14.36 63.77 1.51 48
5 07/28/2020 16:11:01 -80.94, 152.94 116.22 07/28/2020 16:10:26 -80.94, 152.85 116.24 1.57 35
6 07/28/2020 17:01:36 80.95, -39.90 63.78 07/28/2020 17:01:07 80.94, -39.85 63.77 1.57 29
7 07/28/2020 17:52:03 -80.93, 127.84 116.19 07/28/2020 17:51:47 -80.95, 127.72 116.20 2.88 16
8 07/28/2020 18:42:38 80.94, -65.00 63.81 07/28/2020 18:42:28 80.95, -64.98 63.81 0.69 10
9 07/28/2020 19:33:06 -80.94, 102.39 116.19 07/28/2020 19:33:09 -80.94, 102.23 116.20 2.84 3
10 07/28/2020 20:23:41 80.95, -90.46 63.82 07/28/2020 20:23:50 80.94, -90.47 63.81 1.25 9
